OEFEB LOWZ-LOWS

Flight info

Callsign OEFEB
Flight time 0h 56m
Altitude 11000
Route NANIT DCT UNKEN UNKEN2R
Aircraft DA42/L-SDFGRY/C

Departure

Time 2026-04-27 06:40
Airport Zell am See Airfield (LOWZ)

Arrival

Time 2026-04-27 07:36
Airport Salzburg Airport (LOWS)
Time Latitude Longitude Altitude Speed Heading
2026-04-27 06:12 47.29203 12.78736 2510 ft 0 kts 346°
2026-04-27 06:32 47.29206 12.78732 2503 ft 3 kts 283°
2026-04-27 06:33 47.29187 12.78774 2500 ft 10 kts 79°
2026-04-27 06:33 47.29210 12.78907 2499 ft 16 kts 73°
2026-04-27 06:33 47.29241 12.79091 2501 ft 20 kts 76°
2026-04-27 06:33 47.29278 12.79306 2500 ft 22 kts 76°
2026-04-27 06:34 47.29269 12.79400 2499 ft 8 kts 165°
2026-04-27 06:34 47.29260 12.79404 2499 ft 0 kts 162°
2026-04-27 06:38 47.29256 12.79406 2499 ft 5 kts 163°
2026-04-27 06:38 47.29224 12.79432 2498 ft 4 kts 89°
2026-04-27 06:38 47.29214 12.79436 2497 ft 0 kts 249°
2026-04-27 06:39 47.29202 12.79372 2499 ft 29 kts 252°
2026-04-27 06:39 47.29106 12.78799 2501 ft 80 kts 253°
2026-04-27 06:39 47.28930 12.77950 2710 ft 92 kts 251°
2026-04-27 06:39 47.28741 12.76972 2921 ft 104 kts 256°
2026-04-27 06:40 47.28566 12.75913 3200 ft 106 kts 255°
2026-04-27 06:40 47.28378 12.74847 3492 ft 108 kts 254°
2026-04-27 06:40 47.28186 12.73789 3805 ft 107 kts 255°
2026-04-27 06:40 47.28038 12.72706 4098 ft 108 kts 262°
2026-04-27 06:41 47.27963 12.71604 4399 ft 108 kts 265°
2026-04-27 06:41 47.27909 12.70494 4697 ft 109 kts 266°
2026-04-27 06:41 47.27858 12.69375 4994 ft 110 kts 266°
2026-04-27 06:41 47.27811 12.68249 5296 ft 110 kts 266°
2026-04-27 06:42 47.27793 12.67501 5527 ft 111 kts 269°
2026-04-27 06:42 47.27780 12.65990 6000 ft 111 kts 270°
2026-04-27 06:42 47.27766 12.64852 6354 ft 111 kts 269°
2026-04-27 06:42 47.27784 12.63722 6698 ft 110 kts 273°
2026-04-27 06:43 47.27807 12.62977 6920 ft 109 kts 274°
2026-04-27 06:43 47.27884 12.61867 7278 ft 109 kts 278°
2026-04-27 06:43 47.27982 12.60763 7639 ft 108 kts 278°
2026-04-27 06:43 47.28080 12.59663 8017 ft 107 kts 278°
2026-04-27 06:44 47.28178 12.58574 8377 ft 107 kts 278°
2026-04-27 06:44 47.28276 12.57483 8701 ft 108 kts 278°
2026-04-27 06:44 47.28376 12.56391 9038 ft 108 kts 278°
2026-04-27 06:44 47.28479 12.55298 9386 ft 107 kts 278°
2026-04-27 06:45 47.28579 12.54204 9727 ft 108 kts 278°
2026-04-27 06:45 47.28679 12.53116 10015 ft 112 kts 278°
2026-04-27 06:45 47.28803 12.51830 10017 ft 139 kts 278°
2026-04-27 06:45 47.28968 12.50326 10008 ft 156 kts 283°
2026-04-27 06:46 47.29307 12.48757 10010 ft 165 kts 289°
2026-04-27 06:46 47.29702 12.47135 10003 ft 169 kts 289°
2026-04-27 06:46 47.30112 12.45483 10014 ft 174 kts 289°
2026-04-27 06:46 47.30528 12.43820 10004 ft 171 kts 289°
2026-04-27 06:47 47.30936 12.42188 9998 ft 168 kts 290°
2026-04-27 06:47 47.31336 12.40585 10004 ft 167 kts 292°
2026-04-27 06:47 47.32101 12.39376 10017 ft 165 kts 328°
2026-04-27 06:47 47.33154 12.38709 10018 ft 165 kts 336°
2026-04-27 06:48 47.34243 12.38092 10003 ft 171 kts 335°
2026-04-27 06:48 47.35333 12.37401 10011 ft 170 kts 333°
2026-04-27 06:48 47.36414 12.36658 10015 ft 171 kts 332°
2026-04-27 06:48 47.37492 12.35907 10013 ft 171 kts 331°
2026-04-27 06:49 47.38567 12.35159 10014 ft 172 kts 331°
2026-04-27 06:49 47.39671 12.34446 10010 ft 174 kts 337°
2026-04-27 06:49 47.40806 12.33829 10015 ft 174 kts 336°
2026-04-27 06:49 47.41937 12.33202 10014 ft 173 kts 336°
2026-04-27 06:50 47.43065 12.32583 10016 ft 173 kts 336°
2026-04-27 06:50 47.44191 12.31972 10011 ft 172 kts 336°
2026-04-27 06:50 47.45388 12.31805 10019 ft 179 kts
2026-04-27 06:50 47.46468 12.32755 10027 ft 186 kts 46°
2026-04-27 06:51 47.46978 12.34479 10021 ft 187 kts 84°
2026-04-27 06:51 47.46711 12.36327 10023 ft 186 kts 123°
2026-04-27 06:51 47.45785 12.37558 10028 ft 178 kts 161°
2026-04-27 06:51 47.44596 12.37715 10015 ft 171 kts 199°
2026-04-27 06:52 47.43588 12.36904 10032 ft 166 kts 216°
2026-04-27 06:52 47.42595 12.36044 10017 ft 168 kts 212°
2026-04-27 06:52 47.41547 12.35277 10015 ft 169 kts 209°
2026-04-27 06:52 47.40459 12.34581 10008 ft 173 kts 199°
2026-04-27 06:53 47.39250 12.34679 10013 ft 181 kts 162°
2026-04-27 06:53 47.38281 12.35875 9998 ft 188 kts 124°
2026-04-27 06:53 47.37960 12.37712 10015 ft 187 kts 85°
2026-04-27 06:53 47.38424 12.39453 10009 ft 183 kts 48°
2026-04-27 06:54 47.39462 12.40421 10016 ft 176 kts
2026-04-27 06:54 47.40628 12.40269 10009 ft 167 kts 332°
2026-04-27 06:54 47.41650 12.39477 10020 ft 167 kts 330°
2026-04-27 06:54 47.42726 12.38765 10010 ft 170 kts 334°
2026-04-27 06:55 47.43824 12.38142 10008 ft 167 kts 335°
2026-04-27 06:55 47.44911 12.37550 10014 ft 164 kts 335°
2026-04-27 06:55 47.45961 12.36889 10005 ft 163 kts 322°
2026-04-27 06:55 47.46653 12.35657 10016 ft 158 kts 291°
2026-04-27 06:56 47.46850 12.34060 10017 ft 158 kts 279°
2026-04-27 06:56 47.47357 12.32644 10023 ft 160 kts 312°
2026-04-27 06:56 47.48358 12.31896 10012 ft 170 kts 347°
2026-04-27 06:56 47.49543 12.32198 10025 ft 180 kts 21°
2026-04-27 06:57 47.50641 12.33095 10010 ft 181 kts 27°
2026-04-27 06:57 47.51713 12.34047 10019 ft 180 kts 27°
2026-04-27 06:57 47.52793 12.34983 10026 ft 180 kts 26°
2026-04-27 06:57 47.53881 12.35909 10009 ft 179 kts 26°
2026-04-27 06:58 47.54960 12.36822 10014 ft 179 kts 26°
2026-04-27 06:58 47.57123 12.38667 10034 ft 179 kts 26°
2026-04-27 06:58 47.58208 12.39592 10031 ft 180 kts 26°
2026-04-27 06:59 47.59299 12.40520 10022 ft 181 kts 26°
2026-04-27 06:59 47.60386 12.41445 10034 ft 184 kts 26°
2026-04-27 06:59 47.61477 12.42376 10040 ft 179 kts 26°
2026-04-27 06:59 47.62569 12.43307 10033 ft 182 kts 26°
2026-04-27 07:00 47.63673 12.44253 10028 ft 184 kts 25°
2026-04-27 07:00 47.64770 12.45192 10031 ft 181 kts 25°
2026-04-27 07:00 47.65862 12.46123 10019 ft 180 kts 25°
2026-04-27 07:00 47.66949 12.47052 10031 ft 180 kts 26°
2026-04-27 07:01 47.68041 12.47988 10038 ft 182 kts 25°
2026-04-27 07:01 47.69134 12.48919 10036 ft 181 kts 25°
2026-04-27 07:01 47.70227 12.49853 10040 ft 181 kts 26°
2026-04-27 07:01 47.71313 12.50786 10037 ft 180 kts 26°
2026-04-27 07:02 47.72399 12.51719 10030 ft 181 kts 26°
2026-04-27 07:02 47.73482 12.52642 10035 ft 179 kts 25°
2026-04-27 07:02 47.74555 12.53564 10037 ft 177 kts 26°
2026-04-27 07:02 47.75620 12.54481 10039 ft 178 kts 26°
2026-04-27 07:03 47.76684 12.55394 10036 ft 179 kts 26°
2026-04-27 07:03 47.77766 12.56324 10040 ft 180 kts 26°
2026-04-27 07:03 47.78847 12.57254 10036 ft 179 kts 26°
2026-04-27 07:03 47.79924 12.58180 10034 ft 178 kts 26°
2026-04-27 07:04 47.80997 12.59102 10047 ft 179 kts 25°
2026-04-27 07:04 47.82067 12.60067 10034 ft 181 kts 33°
2026-04-27 07:04 47.82972 12.61392 10045 ft 183 kts 43°
2026-04-27 07:04 47.83840 12.62783 10038 ft 183 kts 44°
2026-04-27 07:05 47.84703 12.64178 10038 ft 183 kts 44°
2026-04-27 07:05 47.85566 12.65564 10035 ft 182 kts 43°
2026-04-27 07:05 47.86427 12.66944 10003 ft 183 kts 43°
2026-04-27 07:05 47.87283 12.68322 9993 ft 184 kts 44°
2026-04-27 07:06 47.88151 12.69720 9997 ft 184 kts 43°
2026-04-27 07:06 47.89018 12.71109 10000 ft 182 kts 43°
2026-04-27 07:06 47.89879 12.72492 9995 ft 181 kts 43°
2026-04-27 07:06 47.90734 12.73870 10003 ft 182 kts 44°
2026-04-27 07:07 47.91589 12.75254 9999 ft 181 kts 44°
2026-04-27 07:07 47.92442 12.76628 10007 ft 181 kts 43°
2026-04-27 07:07 47.93296 12.78002 10005 ft 180 kts 43°
2026-04-27 07:07 47.94147 12.79375 10011 ft 180 kts 43°
2026-04-27 07:08 47.95000 12.80749 10009 ft 181 kts 43°
2026-04-27 07:08 47.95849 12.82126 10011 ft 180 kts 44°
2026-04-27 07:08 47.96698 12.83506 10010 ft 180 kts 43°
2026-04-27 07:08 47.97549 12.84881 10013 ft 181 kts 44°
2026-04-27 07:09 47.98401 12.86265 9904 ft 186 kts 44°
2026-04-27 07:09 47.99289 12.87699 9776 ft 190 kts 44°
2026-04-27 07:09 48.00194 12.89167 9646 ft 193 kts 44°
2026-04-27 07:09 48.01101 12.90643 9513 ft 193 kts 44°
2026-04-27 07:10 48.02013 12.92123 9373 ft 194 kts 44°
2026-04-27 07:10 48.02938 12.93607 9203 ft 194 kts 40°
2026-04-27 07:10 48.04023 12.94715 8994 ft 186 kts 21°
2026-04-27 07:10 48.05240 12.95248 8790 ft 181 kts
2026-04-27 07:11 48.06482 12.95234 8573 ft 177 kts 345°
2026-04-27 07:11 48.07502 12.94343 8368 ft 169 kts 308°
2026-04-27 07:11 48.07955 12.92750 8127 ft 170 kts 278°
2026-04-27 07:11 48.07798 12.91006 7867 ft 172 kts 248°
2026-04-27 07:12 48.07040 12.89624 7614 ft 176 kts 218°
2026-04-27 07:12 48.05894 12.89061 7367 ft 181 kts 186°
2026-04-27 07:12 48.04634 12.89095 7130 ft 182 kts 181°
2026-04-27 07:12 48.03370 12.89169 6887 ft 181 kts 181°
2026-04-27 07:13 48.02107 12.89224 6641 ft 181 kts 182°
2026-04-27 07:13 48.00852 12.89259 6391 ft 181 kts 182°
2026-04-27 07:13 47.99592 12.89294 6124 ft 180 kts 181°
2026-04-27 07:13 47.98353 12.89329 5855 ft 177 kts 181°
2026-04-27 07:14 47.97163 12.89018 5602 ft 175 kts 210°
2026-04-27 07:14 47.96202 12.87921 5350 ft 174 kts 214°
2026-04-27 07:14 47.95037 12.87526 5085 ft 174 kts 175°
2026-04-27 07:14 47.93936 12.88185 4829 ft 173 kts 139°
2026-04-27 07:15 47.93229 12.89646 4578 ft 174 kts 120°
2026-04-27 07:15 47.92638 12.91223 4315 ft 175 kts 123°
2026-04-27 07:15 47.91759 12.92440 4070 ft 172 kts 150°
2026-04-27 07:15 47.90641 12.92942 3917 ft 167 kts 176°
2026-04-27 07:16 47.89490 12.92675 3626 ft 169 kts 202°
2026-04-27 07:16 47.88542 12.91710 3358 ft 168 kts 227°
2026-04-27 07:16 47.87965 12.90214 3078 ft 168 kts 253°
2026-04-27 07:16 47.87904 12.88559 3014 ft 156 kts 281°
2026-04-27 07:17 47.88344 12.87162 3008 ft 144 kts 310°
2026-04-27 07:17 47.89158 12.86329 3012 ft 146 kts 341°
2026-04-27 07:17 47.90180 12.86204 3018 ft 151 kts
2026-04-27 07:17 47.91140 12.86837 3013 ft 154 kts 38°
2026-04-27 07:18 47.91802 12.88083 3051 ft 154 kts 63°
2026-04-27 07:18 47.92016 12.89592 3192 ft 148 kts 96°
2026-04-27 07:18 47.91665 12.91030 3269 ft 148 kts 120°
2026-04-27 07:18 47.91073 12.92325 3263 ft 153 kts 125°
2026-04-27 07:19 47.90406 12.93587 3276 ft 156 kts 140°
2026-04-27 07:19 47.89378 12.94187 3111 ft 165 kts 170°
2026-04-27 07:19 47.88288 12.94604 3003 ft 162 kts 159°
2026-04-27 07:19 47.87300 12.95309 2962 ft 156 kts 153°
2026-04-27 07:20 47.86335 12.95974 2843 ft 151 kts 156°
2026-04-27 07:20 47.85372 12.96580 2610 ft 145 kts 159°
2026-04-27 07:20 47.84498 12.97099 2360 ft 126 kts 156°
2026-04-27 07:20 47.83713 12.97612 2171 ft 121 kts 155°
2026-04-27 07:21 47.82966 12.98097 2064 ft 114 kts 156°
2026-04-27 07:21 47.82266 12.98535 1890 ft 105 kts 156°
2026-04-27 07:21 47.81618 12.98957 1729 ft 100 kts 156°
2026-04-27 07:21 47.80981 12.99363 1615 ft 98 kts 158°
2026-04-27 07:22 47.80364 12.99747 1480 ft 94 kts 158°
2026-04-27 07:22 47.79795 13.00100 1415 ft 78 kts 158°
2026-04-27 07:22 47.79247 13.00451 1417 ft 102 kts 156°
2026-04-27 07:22 47.78564 13.00896 1656 ft 109 kts 155°
2026-04-27 07:23 47.77848 13.01382 1955 ft 113 kts 153°
2026-04-27 07:23 47.77141 13.01905 2268 ft 116 kts 153°
2026-04-27 07:23 47.76438 13.02447 2571 ft 115 kts 151°
2026-04-27 07:23 47.75818 13.03199 2850 ft 117 kts 120°
2026-04-27 07:24 47.75716 13.04387 3035 ft 127 kts 72°
2026-04-27 07:24 47.76306 13.05425 3173 ft 133 kts 25°
2026-04-27 07:24 47.77207 13.05688 3365 ft 142 kts
2026-04-27 07:24 47.78149 13.05409 3696 ft 133 kts 330°
2026-04-27 07:25 47.78673 13.04398 4180 ft 114 kts 289°
2026-04-27 07:25 47.78985 13.03364 4556 ft 111 kts 307°
2026-04-27 07:25 47.79482 13.02491 4897 ft 111 kts 311°
2026-04-27 07:25 47.80004 13.01650 5229 ft 111 kts 312°
2026-04-27 07:26 47.80530 13.00828 5534 ft 111 kts 313°
2026-04-27 07:26 47.81067 12.99993 5855 ft 112 kts 313°
2026-04-27 07:26 47.81628 12.99131 5991 ft 126 kts 315°
2026-04-27 07:26 47.82441 12.98466 6014 ft 142 kts 339°
2026-04-27 07:27 47.83409 12.97973 5999 ft 151 kts 339°
2026-04-27 07:27 47.84422 12.97453 6005 ft 157 kts 339°
2026-04-27 07:27 47.85475 12.96915 5996 ft 162 kts 339°
2026-04-27 07:27 47.86535 12.96375 5994 ft 161 kts 339°
2026-04-27 07:28 47.87601 12.95820 6004 ft 164 kts 339°
2026-04-27 07:28 47.88693 12.95258 5997 ft 168 kts 339°
2026-04-27 07:28 47.89793 12.94688 6001 ft 165 kts 338°
2026-04-27 07:28 47.90939 12.94536 6010 ft 167 kts
2026-04-27 07:29 47.92097 12.94867 5930 ft 173 kts 10°
2026-04-27 07:29 47.93282 12.95254 5789 ft 176 kts 11°
2026-04-27 07:29 47.94496 12.95660 5614 ft 180 kts 11°
2026-04-27 07:29 47.95739 12.96061 5440 ft 184 kts 11°
2026-04-27 07:30 47.96981 12.96456 5259 ft 181 kts 10°
2026-04-27 07:30 47.98211 12.96835 5086 ft 182 kts
2026-04-27 07:30 47.99434 12.96488 4890 ft 180 kts 330°
2026-04-27 07:30 48.00258 12.95170 4725 ft 178 kts 296°
2026-04-27 07:31 48.00669 12.93431 4522 ft 178 kts 278°
2026-04-27 07:31 48.00446 12.91637 4347 ft 179 kts 242°
2026-04-27 07:31 47.99539 12.90414 4188 ft 179 kts 206°
2026-04-27 07:31 47.98357 12.89817 4004 ft 179 kts 191°
2026-04-27 07:32 47.97159 12.89665 4002 ft 170 kts 179°
2026-04-27 07:32 47.96380 12.89765 3993 ft 170 kts 169°
2026-04-27 07:32 47.95269 12.90308 4002 ft 167 kts 160°
2026-04-27 07:32 47.94194 12.90957 4007 ft 166 kts 158°
2026-04-27 07:33 47.93131 12.91641 3993 ft 166 kts 157°
2026-04-27 07:33 47.92067 12.92321 3963 ft 168 kts 158°
2026-04-27 07:33 47.90955 12.93014 3743 ft 178 kts 156°
2026-04-27 07:33 47.89803 12.93758 3506 ft 181 kts 157°
2026-04-27 07:34 47.88666 12.94475 3266 ft 175 kts 157°
2026-04-27 07:34 47.87569 12.95170 3036 ft 167 kts 156°
2026-04-27 07:34 47.86524 12.95834 2809 ft 161 kts 157°
2026-04-27 07:34 47.85508 12.96480 2576 ft 157 kts 156°
2026-04-27 07:35 47.84511 12.97110 2352 ft 154 kts 157°
2026-04-27 07:35 47.83556 12.97720 2136 ft 147 kts 156°
2026-04-27 07:35 47.82669 12.98281 1959 ft 130 kts 156°
2026-04-27 07:35 47.81873 12.98785 1792 ft 117 kts 157°
2026-04-27 07:36 47.81190 12.99218 1647 ft 95 kts 156°
2026-04-27 07:36 47.80613 12.99585 1539 ft 90 kts 156°
2026-04-27 07:36 47.80043 12.99948 1444 ft 88 kts 156°
2026-04-27 07:36 47.79562 13.00246 1417 ft 48 kts 155°
2026-04-27 07:37 47.79420 13.00272 1417 ft 14 kts 225°
2026-04-27 07:37 47.79379 13.00139 1415 ft 14 kts 260°
2026-04-27 07:37 47.79441 13.00060 1415 ft 13 kts 337°
2026-04-27 07:37 47.79524 13.00007 1415 ft 12 kts 336°
2026-04-27 07:38 47.79548 12.99898 1414 ft 14 kts 247°
2026-04-27 07:38 47.79535 12.99782 1414 ft 7 kts 246°
2026-04-27 07:38 47.79542 12.99747 1414 ft 3 kts 335°
2026-04-27 07:38 47.79546 12.99745 1414 ft 0 kts 336°